Waarnemingen

Advertentie
Mijn weer
St-Girons, Frankrijk (7627): temperatuur & dauwpunt: 09.08.2018 01:00:00 - 15.08.2018 01:00:00 (CEST)St-Girons, Frankrijk (7627): temperatuur 5cm: 09.08.2018 01:00:00 - 15.08.2018 01:00:00 (CEST)St-Girons, Frankrijk (7627): temperatuur -20cm & temperatuur -100cm: 09.08.2018 01:00:00 - 15.08.2018 01:00:00 (CEST)St-Girons, Frankrijk (7627): windsnelheid & windstoten: 09.08.2018 01:00:00 - 15.08.2018 01:00:00 (CEST)St-Girons, Frankrijk (7627): windrichting: 09.08.2018 01:00:00 - 15.08.2018 01:00:00 (CEST)St-Girons, Frankrijk (7627): luchtdruk: 09.08.2018 01:00:00 - 15.08.2018 01:00:00 (CEST)St-Girons, Frankrijk (7627): zicht: 09.08.2018 01:00:00 - 15.08.2018 01:00:00 (CEST)St-Girons, Frankrijk (7627): Zonneschijnduur: 09.08.2018 01:00:00 - 15.08.2018 01:00:00 (CEST)St-Girons, Frankrijk (7627): neerslag: 09.08.2018 01:00:00 - 15.08.2018 01:00:00 (CEST)
Datum & Tijd tt [°C] td [°C] tt 5cm [°C] tt -20cm [°C] tt -100cm [°C] ff [km/u] ff [kn] fx [km/u] fx [kn] dd ppp [hPa] vv [km] sd [min] rr [mm]
15.08.2018 01:00:00 16,3 14,1 14,9 22,4 20,9 0 0 5 3 N 1022,8 20 0 0,0
15.08.2018 00:00:00 16,6 14,2 14,6 22,4 20,9 0 0 6 4 N 1022,7 20 0 0,0
14.08.2018 23:00:00 16,4 14,4 14,8 22,4 20,9 3 2 10 5 Z 1022,8 20 0 0,0
14.08.2018 22:00:00 17,8 15,1 16,7 22,4 20,9 3 1 4 2 ZZO 1022,3 20 0 0,0
14.08.2018 21:00:00 19,2 14,5 17,5 22,4 20,9 3 2 11 6 ZZW 1021,3 20 0 0,0
14.08.2018 20:00:00 20,8 14,0 20,9 22,4 20,9 5 3 12 6 W 1020,7 20 1 0,0
14.08.2018 19:00:00 21,2 14,4 22,1 22,4 20,9 6 3 21 11 W 1020,7 20 3 0,0
14.08.2018 18:00:00 21,3 14,7 21,6 22,2 20,9 10 5 18 10 WNW 1020,8 20 0 0,0
14.08.2018 17:00:00 20,6 14,3 21,0 22,2 20,9 9 5 22 12 WNW 1021,2 20 1 0,0
14.08.2018 16:00:00 21,6 14,3 23,2 22,1 20,9 14 7 25 14 W 1020,7 20 0 0,0
14.08.2018 15:00:00 21,4 14,3 24,7 22,0 20,9 20 11 32 17 NW 1020,8 20 17 0,0
14.08.2018 14:00:00 21,0 14,2 23,6 22,0 20,9 11 6 24 13 W 1020,8 20 0 0,0
14.08.2018 13:00:00 20,2 13,9 22,1 21,9 20,9 17 9 34 18 W 1021,0 20 27 0,0
14.08.2018 12:00:00 19,2 13,8 20,9 22,0 20,9 16 8 29 15 W 1021,3 20 3 0,0
14.08.2018 11:00:00 19,1 14,8 21,6 22,0 20,9 7 4 13 7 W 1021,2 20 14 0,0
14.08.2018 10:00:00 17,9 14,4 15,6 22,1 20,9 7 4 18 10 OZO 1021,0 20 14 0,0
14.08.2018 09:00:00 15,5 13,9 15,2 22,2 20,9 13 7 30 16 W 1021,5 8 0 0,4
14.08.2018 08:00:00 15,7 14,2 15,4 22,2 20,9 16 8 29 16 WNW 1020,7 8 0 0,2
14.08.2018 07:00:00 16,6 14,2 16,0 22,3 20,9 7 4 20 11 WNW 1019,7 20 0 0,0
14.08.2018 06:00:00 16,8 14,4 16,1 22,4 20,9 5 3 10 5 NW 1019,2 20 0 0,0
14.08.2018 05:00:00 16,9 14,9 16,3 22,4 20,9 4 2 13 7 NW 1019,2 20 0 0,0
14.08.2018 04:00:00 16,9 14,7 16,4 22,5 20,9 7 4 11 6 WNW 1019,2 20 0 0,0
14.08.2018 03:00:00 17,1 14,6 16,3 22,6 20,9 5 3 12 7 WNW 1019,0 20 0 0,0
14.08.2018 02:00:00 17,0 15,2 16,3 22,7 20,9 5 3 10 6 WNW 1019,3 20 0 0,0
14.08.2018 01:00:00 16,8 15,5 16,5 22,7 20,9 5 3 17 9 NW 1019,4 20 0 0,4
14.08.2018 00:00:00 16,9 15,6 16,5 22,7 20,9 5 3 24 13 WNW 1019,1 6 0 0,4
13.08.2018 23:00:00 17,3 16,0 16,9 22,8 20,9 17 9 29 16 WNW 1018,8 8 0 0,2
13.08.2018 22:00:00 17,5 16,4 17,3 22,9 20,9 8 4 16 9 W 1018,1 4,7 0 0,2
13.08.2018 21:00:00 18,1 16,4 17,6 22,9 20,9 8 4 10 5 ZZO 1017,2 13 0 0,0
13.08.2018 20:00:00 18,3 16,1 17,8 22,8 20,9 2 1 9 5 ZO 1016,5 20 0 0,0
13.08.2018 19:00:00 18,1 15,9 17,6 22,8 20,9 7 4 26 14 WNW 1016,3 20 0 0,0
13.08.2018 18:00:00 18,1 16,9 18,2 22,7 20,9 16 9 32 18 WNW 1016,3 9 0 0,4
13.08.2018 17:00:00 19,2 17,7 18,8 22,6 20,9 16 9 28 15 W 1015,7 5 0 1,6
13.08.2018 16:00:00 22,1 17,5 24,1 22,4 20,9 15 8 24 13 NNW 1015,0 20 0 0,0
13.08.2018 15:00:00 23,8 17,3 28,5 22,3 20,9 12 7 22 12 NW 1014,6 20 4 0,0
13.08.2018 14:00:00 23,8 17,5 28,1 22,2 20,9 12 6 21 11 NW 1014,7 20 0 0,0
13.08.2018 13:00:00 23,3 15,9 28,0 22,2 20,9 11 6 23 12 NW 1015,0 20 50 0,0
13.08.2018 12:00:00 23,0 15,8 27,9 22,2 20,9 9 5 18 10 WNW 1015,1 20 40 0,0
13.08.2018 11:00:00 22,9 15,0 26,0 22,2 20,9 2 1 6 4 N 1015,0 20 38 0,0
13.08.2018 10:00:00 20,9 15,9 20,3 22,3 20,9 4 2 9 5 OZO 1015,0 20 26 0,0
13.08.2018 09:00:00 17,8 15,8 17,0 22,4 20,9 2 1 5 3 ZZW 1015,4 20 0 0,0
13.08.2018 08:00:00 16,1 15,1 14,4 22,5 20,9 2 1 9 5 W 1015,3 14 0 0,0
13.08.2018 07:00:00 15,4 14,4 13,3 22,6 20,9 4 2 7 4 ZW 1014,8 11 0 0,0
13.08.2018 06:00:00 16,6 15,0 15,4 22,7 20,9 6 3 10 5 Z 1015,2 20 0 0,0
13.08.2018 05:00:00 17,7 15,1 16,8 22,7 20,9 5 3 19 11 ONO 1015,3 20 0 0,0
13.08.2018 04:00:00 17,2 15,4 15,3 22,9 20,9 7 4 11 6 ZZO 1015,5 20 0 0,0
13.08.2018 03:00:00 17,8 14,5 16,2 22,9 20,9 4 2 18 10 W 1015,8 20 0 0,0
13.08.2018 02:00:00 18,8 14,3 17,3 23,0 20,9 9 5 26 14 WNW 1016,5 20 0 0,0
13.08.2018 01:00:00 19,2 16,6 18,2 23,1 20,9 10 6 31 17 NNW 1015,4 20 0 0,0
13.08.2018 00:00:00 19,3 17,1 17,2 23,1 20,9 16 9 27 15 NW 1014,3 20 0 0,0
12.08.2018 23:00:00 20,5 15,7 18,8 23,2 20,9 23 12 36 19 Z 1012,9 20 0 0,0
12.08.2018 22:00:00 20,2 16,6 18,0 23,2 20,9 22 12 41 22 ZO 1014,6 20 0 0,0
12.08.2018 21:00:00 19,0 17,1 17,7 23,1 20,9 13 7 22 12 ZO 1015,7 20 0 0,4
12.08.2018 20:00:00 18,9 16,5 17,6 23,1 20,9 5 3 65 35 W 1016,0 20 0 1,6
12.08.2018 19:00:00 23,9 16,4 19,9 22,9 20,9 31 17 55 30 Z 1012,3 20 0 5,1
12.08.2018 18:00:00 28,8 20,0 28,1 22,6 20,9 5 3 15 8 W 1009,6 18 3 0,0
12.08.2018 17:00:00 32,8 15,8 35,0 22,4 20,9 10 6 20 11 NO 1009,4 19 51 0,0
12.08.2018 16:00:00 33,1 17,3 39,6 22,3 20,9 10 5 22 12 O 1010,1 20 60 0,0
12.08.2018 15:00:00 33,4 18,7 40,6 22,1 20,9 5 3 13 7 OZO 1010,7 20 56 0,0
12.08.2018 14:00:00 32,1 18,7 33,5 22,0 20,9 5 3 14 7 OZO 1011,5 20 54 0,0
12.08.2018 13:00:00 30,9 18,6 37,3 21,9 20,9 7 4 14 8 OZO 1012,4 17 60 0,0
12.08.2018 12:00:00 29,3 17,2 34,6 21,9 20,9 6 4 14 8 O 1013,2 20 60 0,0
12.08.2018 11:00:00 27,2 17,4 29,7 21,9 21,0 9 5 18 10 O 1013,8 20 60 0,0
12.08.2018 10:00:00 25,0 17,0 22,5 22,0 20,9 9 5 21 11 OZO 1014,3 20 60 0,0
12.08.2018 09:00:00 21,9 16,0 20,3 22,1 21,0 11 6 22 12 ZO 1015,1 20 60 0,0
12.08.2018 08:00:00 16,9 14,7 13,7 22,2 20,9 5 3 11 6 ZZW 1016,4 20 21 0,0
12.08.2018 07:00:00 15,8 13,5 13,8 22,2 20,9 0 0 18 10 N 1016,7 20 0 0,0
12.08.2018 06:00:00 18,1 14,4 16,6 22,3 21,0 13 7 27 15 ZO 1016,3 20 0 0,0
12.08.2018 05:00:00 17,7 14,4 16,6 22,4 21,0 10 5 23 13 OZO 1017,0 20 0 0,0
12.08.2018 04:00:00 17,9 14,6 14,6 22,5 21,0 7 4 19 11 ZO 1017,7 20 0 0,0
12.08.2018 03:00:00 16,9 14,9 13,7 22,6 21,0 5 3 10 5 Z 1018,4 20 0 0,0
12.08.2018 02:00:00 16,7 14,5 14,3 22,6 21,0 0 0 6 3 N 1019,1 20 0 0,0
12.08.2018 01:00:00 18,0 15,1 15,1 22,7 21,0 8 4 15 8 ZZO 1019,1 20 0 0,0
12.08.2018 00:00:00 18,5 14,6 16,3 22,7 21,0 4 2 23 13 ZZO 1019,2 20 0 0,0
11.08.2018 23:00:00 18,5 15,2 16,1 22,7 21,0 3 2 8 5 ZZO 1019,5 20 0 0,0
11.08.2018 22:00:00 18,9 15,2 16,5 22,7 21,0 5 3 9 5 Z 1019,7 20 0 0,0
11.08.2018 21:00:00 20,6 15,4 19,1 22,6 21,0 5 3 8 4 ZW 1019,3 20 38 0,0
11.08.2018 20:00:00 25,4 17,1 26,5 22,4 21,0 4 2 10 5 W 1018,7 20 48 0,0
11.08.2018 19:00:00 26,4 13,8 27,7 22,2 21,0 5 3 14 8 NNO 1018,7 20 52 0,0
11.08.2018 18:00:00 27,3 14,3 34,6 22,1 21,0 5 3 18 10 NNO 1018,8 20 60 0,0
11.08.2018 17:00:00 27,0 14,7 34,5 21,9 21,0 10 5 18 10 NO 1019,2 20 60 0,0
11.08.2018 16:00:00 26,9 15,3 35,4 21,7 21,0 9 5 18 10 NNO 1020,1 20 60 0,0
11.08.2018 15:00:00 26,3 14,1 34,9 21,5 21,0 3 2 16 9 OZO 1021,0 20 60 0,0
11.08.2018 14:00:00 25,5 15,5 33,5 21,4 21,1 3 2 15 8 ONO 1021,5 19 60 0,0
11.08.2018 13:00:00 24,8 15,4 32,4 21,3 21,0 2 1 16 9 Z 1022,3 20 60 0,0
11.08.2018 12:00:00 23,1 13,6 30,3 21,3 21,1 6 4 16 9 O 1023,3 20 60 0,0
11.08.2018 11:00:00 22,4 14,0 26,6 21,3 21,0 5 3 13 7 OZO 1023,8 20 60 0,0
11.08.2018 10:00:00 20,3 14,4 19,0 21,5 21,1 4 2 10 6 ZO 1024,4 20 60 0,0
11.08.2018 09:00:00 17,7 13,8 17,8 21,5 21,1 5 3 9 5 OZO 1024,9 20 60 0,0
11.08.2018 08:00:00 15,3 12,4 13,0 21,6 21,1 5 3 20 11 OZO 1025,0 20 22 0,0
11.08.2018 07:00:00 14,2 12,1 12,8 21,7 21,1 10 5 22 12 ZO 1024,9 20 0 0,2
11.08.2018 06:00:00 14,4 12,3 12,6 21,8 21,1 11 6 22 12 ZO 1025,0 20 0 0,0
11.08.2018 05:00:00 14,0 12,6 10,8 21,9 21,1 11 6 18 10 ZZO 1025,5 20 0 0,0
11.08.2018 04:00:00 13,3 12,7 10,3 22,0 21,1 0 0 4 2 N 1026,1 16 0 0,0
11.08.2018 03:00:00 12,8 11,9 10,5 22,1 21,1 0 0 4 2 N 1026,4 20 0 0,0
11.08.2018 02:00:00 13,4 12,1 11,0 22,2 21,1 2 1 6 4 Z 1026,6 20 0 0,0
11.08.2018 01:00:00 13,6 12,3 11,3 22,2 21,2 0 0 5 3 N 1026,6 20 0 0,0
11.08.2018 00:00:00 14,3 13,0 11,8 22,3 21,1 2 1 4 2 NW 1026,3 20 0 0,0
10.08.2018 23:00:00 15,8 13,8 13,2 22,3 21,2 3 2 16 9 WZW 1025,8 20 0 0,0
10.08.2018 22:00:00 17,2 13,9 14,4 22,3 21,2 8 4 11 6 ZZO 1025,2 20 0 0,0
10.08.2018 21:00:00 18,9 14,2 17,8 22,2 21,2 8 4 11 6 Z 1024,6 20 40 0,0
10.08.2018 20:00:00 20,6 14,3 22,2 22,2 21,2 7 4 10 5 ZZO 1024,3 20 39 0,0
10.08.2018 19:00:00 21,0 14,2 22,2 22,1 21,2 0 0 6 4 N 1024,1 20 0 0,0
10.08.2018 18:00:00 20,4 14,7 22,2 22,1 21,2 5 3 7 4 Z 1024,2 20 0 0,0
10.08.2018 17:00:00 20,6 13,3 22,5 22,0 21,2 4 2 9 5 NO 1024,3 20 0 0,0
10.08.2018 16:00:00 20,8 13,7 23,5 21,9 21,2 3 2 11 6 O 1024,3 20 4 0,0
10.08.2018 15:00:00 21,2 14,1 25,3 21,8 21,2 2 1 8 4 ZO 1024,5 20 0 0,0
10.08.2018 14:00:00 19,6 13,3 21,1 21,8 21,2 5 3 11 6 O 1025,2 20 0 0,0
10.08.2018 13:00:00 18,4 14,1 20,3 21,8 21,2 3 1 10 6 N 1025,7 20 0 0,0
10.08.2018 12:00:00 18,6 14,1 21,3 21,8 21,2 4 2 11 6 WNW 1025,7 20 0 0,0
10.08.2018 11:00:00 19,6 13,5 20,6 21,8 21,2 2 1 8 4 NNO 1025,4 20 22 0,0
10.08.2018 10:00:00 17,3 13,6 18,0 21,9 21,2 0 0 6 3 N 1025,8 20 0 0,0
10.08.2018 09:00:00 15,9 13,9 15,1 21,9 21,2 0 0 5 3 N 1026,0 20 0 0,0
10.08.2018 08:00:00 15,0 13,5 14,9 22,0 21,2 4 2 8 4 ZZO 1025,7 17 2 0,0
10.08.2018 07:00:00 15,0 13,9 14,8 22,1 21,2 0 0 4 2 N 1025,4 7 0 0,0
10.08.2018 06:00:00 14,9 13,8 14,8 22,1 21,2 2 1 8 4 NNW 1025,3 20 0 0,0
10.08.2018 05:00:00 15,2 13,7 15,1 22,2 21,2 5 3 9 5 N 1025,7 20 0 0,0
10.08.2018 04:00:00 15,5 14,0 15,3 22,2 21,2 0 0 5 3 N 1025,6 20 0 0,0
10.08.2018 03:00:00 15,6 14,5 15,4 22,3 21,2 4 2 8 4 WNW 1025,3 20 0 0,0
10.08.2018 02:00:00 15,6 14,1 15,3 22,3 21,2 0 0 5 3 N 1025,7 20 0 0,0
10.08.2018 01:00:00 15,6 14,1 15,4 22,4 21,2 0 0 4 2 N 1025,3 20 0 0,0
10.08.2018 00:00:00 15,9 14,3 15,5 22,4 21,2 0 0 9 5 N 1024,9 20 0 0,0
09.08.2018 23:00:00 15,8 14,2 15,4 22,5 21,2 5 3 10 5 Z 1024,7 20 0 0,0
09.08.2018 22:00:00 16,1 14,1 15,1 22,5 21,2 8 4 17 9 Z 1023,9 20 - 0,0
09.08.2018 21:00:00 15,8 13,3 15,0 22,5 21,2 9 5 27 14 W 1023,5 20 0 0,0
09.08.2018 20:00:00 16,6 14,8 15,9 22,5 21,3 8 4 23 12 W 1023,2 20 0 0,8
09.08.2018 19:00:00 17,8 14,5 16,9 22,6 21,3 3 2 19 10 ZZO 1022,8 20 0 0,2
09.08.2018 18:00:00 18,4 13,7 19,3 22,6 21,3 4 2 13 7 NW 1022,1 20 0 0,0
09.08.2018 17:00:00 18,2 14,5 18,6 22,6 21,3 12 6 23 13 NW 1021,8 20 0 0,0
09.08.2018 16:00:00 18,1 13,4 17,9 22,6 21,3 10 6 21 11 NW 1021,0 20 0 0,0
09.08.2018 15:00:00 17,9 13,6 18,1 22,7 21,2 7 4 30 16 NNW 1020,5 19 0 0,0
09.08.2018 14:00:00 17,9 13,2 18,1 22,8 21,3 16 9 28 15 WNW 1020,4 20 0 0,0
09.08.2018 13:00:00 17,9 13,6 17,7 22,8 21,3 9 5 24 13 W 1020,0 20 0 0,0
09.08.2018 12:00:00 17,6 13,1 17,6 22,9 21,2 16 9 34 19 WNW 1019,5 20 0 0,0
09.08.2018 11:00:00 17,6 13,3 17,3 23,0 21,3 13 7 43 23 NW 1018,5 20 0 0,0
09.08.2018 10:00:00 17,8 13,9 17,5 23,0 21,2 24 13 46 25 WNW 1017,3 20 0 0,0
09.08.2018 09:00:00 18,2 14,5 18,1 23,1 21,2 20 11 42 23 NW 1016,2 20 1 0,0
09.08.2018 08:00:00 17,9 15,3 17,3 23,2 21,2 14 8 52 28 WNW 1014,7 20 14 0,0
09.08.2018 07:00:00 19,5 17,1 18,2 23,2 21,3 26 14 45 25 WNW 1012,6 16 0 0,0
09.08.2018 06:00:00 18,7 17,0 15,5 23,3 21,2 22 12 34 18 NW 1011,8 14 0 0,0
09.08.2018 05:00:00 16,9 15,9 15,3 23,4 21,3 7 4 19 11 NW 1009,6 11 0 0,0
09.08.2018 04:00:00 19,2 15,3 15,1 23,5 21,3 10 6 24 13 ZO 1009,2 20 0 0,0
09.08.2018 03:00:00 17,9 16,8 16,1 23,5 21,2 4 2 8 5 ZW 1009,6 8 0 0,0
09.08.2018 02:00:00 18,9 17,4 18,0 23,6 21,2 3 1 11 6 WNW 1009,8 14 0 0,0
09.08.2018 01:00:00 19,6 17,9 18,3 23,6 21,2 0 0 14 7 N 1010,6 13 0 0,0

tt = temperatuur
td = dauwpunt
tt 5cm = temperatuur 5cm
tt -20cm = temperatuur -20cm
tt -100cm = temperatuur -100cm
ff = windsnelheid
fx = windstoten
dd = windrichting
ppp = luchtdruk
vv = zicht
sd = Zonneschijnduur
rr = neerslag

Weerstations in de omgeving